Location: Bjelajci
(45.0103°N, 16.1758°E)
Time: 04:03:21
(UTC+00:00)

Cosmos 1763 Rocket - Pass Details

Date: 14 July 2020
Orbit: 732 x 781 km, 74.0° (Epoch: 11 August)

Event Time Altitude Azimuth Distance (km) Brightness Sun altitude
Rises 02:23:29 0° 334° (NNW) 3,242 7.0 -9.0°
Reaches altitude 10° 02:25:53 10° 330° (NNW) 2,318 6.2 -8.7°
Maximum altitude 02:31:00 54° 255° (WSW) 939 3.7 -8.0°
Drops below altitude 10° 02:36:08 10° 179° (S) 2,323 5.6 -7.4°
Sets 02:38:34 0° 174° (S) 3,249 6.4 -7.0°
